Location: Bishop�s Knoyle
(51.0728°N, 2.1714°W)
Time: 05:45:44
(UTC+00:00)

CENTAUR R/B - Pass Details

Date: 26 January 2021
Orbit: 742 x 1446 km, 63.5° (Epoch: 02 March)

Event Time Altitude Azimuth Distance (km) Brightness Sun altitude
Rises 06:05:54 0° 207° (SSW) 3,405 5.2 -16.8°
Reaches altitude 10° 06:08:13 10° 204° (SSW) 2,548 4.6 -16.4°
Maximum altitude 06:14:03 61° 125° (SE) 1,126 3.1 -15.5°
Drops below altitude 10° 06:21:04 10° 47° (NE) 3,044 5.6 -14.4°
Sets 06:24:03 0° 45° (NE) 4,118 6.2 -14.0°
